Theta_e
344 346 346 345 346 349 347 345 344 343 343 346 349 352 352 352 352 352 352 351 347 351 350 345 349 344 344 345 342 343 347 347 347 347 346 345 344 343 344 344 343 342 341 341 341 341 342 342 342 342 341 340 340 338 338 337 334 334 336 332 334 336
342 345 346 345 346 346 347 346 348 349 349 349 349 352 353 354 352 351 348 350 348 345 347 350 345 346 347 345 345 345 344 347 347 346 347 346 346 345 344 343 341 340 339 339 338 336 341 343 341 342 341 341 340 337 339 337 337 334 335 335 338 335
338 343 344 346 346 346 346 346 348 347 347 347 350 347 346 342 345 345 345 345 344 346 348 349 351 347 344 342 347 346 345 344 346 346 346 346 345 344 342 342 341 339 338 337 335 335 335 339 343 342 342 342 339 337 337 339 337 337 335 337 339 336
335 341 342 345 346 344 346 346 347 347 347 349 351 348 345 343 343 346 343 345 348 350 345 348 346 347 346 343 346 345 345 343 346 346 347 346 345 343 341 340 339 337 336 336 334 334 333 337 340 342 342 340 338 338 338 338 336 337 338 333 337 338
331 337 339 342 346 345 344 344 345 347 346 348 348 350 350 345 347 349 344 346 346 349 344 349 347 351 350 343 347 346 346 342 344 348 345 342 341 341 340 337 335 334 335 335 333 333 335 336 340 341 340 340 339 339 338 338 337 337 338 336 339 339
328 332 338 339 342 343 345 343 343 345 346 346 347 349 349 347 346 350 351 344 345 349 348 347 349 347 347 347 346 349 347 345 344 339 340 340 338 339 338 338 336 335 336 337 336 335 336 336 337 339 339 339 338 339 338 336 337 337 339 339 341 339
326 330 333 334 338 340 343 342 340 341 342 344 347 346 344 344 349 350 349 347 343 345 347 346 345 347 345 347 343 343 343 341 341 341 338 340 339 340 338 337 337 338 338 337 335 335 335 336 338 337 338 338 339 338 338 337 337 337 338 338 340 339
324 326 330 330 333 334 336 336 335 336 335 337 340 342 344 344 346 347 350 349 348 346 346 345 346 346 346 347 345 342 340 341 343 342 340 341 339 339 338 338 340 339 337 336 334 335 332 332 336 338 338 338 338 337 339 337 338 340 340 340 341 339
324 324 326 328 329 331 331 332 331 332 333 330 330 335 341 345 345 345 349 350 349 346 344 345 346 347 351 345 347 345 342 341 342 342 342 339 338 338 338 338 338 338 338 337 335 335 331 331 336 337 337 337 338 337 338 339 339 339 339 339 341 340
323 323 325 325 327 328 329 329 329 328 329 329 331 330 332 337 342 345 346 348 349 350 347 348 347 348 346 348 347 347 345 342 341 342 344 340 338 338 337 338 338 338 334 336 334 334 332 331 330 336 337 338 338 338 338 338 338 337 339 340 341 342
322 326 324 323 326 327 328 327 326 327 328 328 328 330 332 331 333 338 343 348 348 348 348 347 345 347 344 345 347 346 346 344 343 344 343 340 341 339 338 338 338 337 336 334 333 333 332 331 330 330 335 336 338 338 338 339 338 338 337 338 339 340
324 327 326 323 324 325 326 326 327 327 326 327 328 326 328 332 334 330 334 341 344 346 348 349 347 347 344 347 347 346 344 344 344 343 343 341 341 340 339 337 338 340 339 338 335 334 334 331 330 328 333 335 337 337 337 339 338 337 336 338 337 338
324 326 325 324 324 324 324 325 325 326 327 328 329 326 325 326 332 332 332 337 340 343 345 348 351 345 341 345 348 349 345 344 344 344 345 344 342 342 339 338 339 340 338 336 336 334 332 332 330 329 331 333 336 337 338 337 338 338 336 336 335 335
324 323 324 323 324 322 323 324 324 325 327 327 328 328 326 327 327 331 332 333 336 339 341 346 346 348 347 343 346 345 343 341 343 344 345 346 344 342 338 337 337 338 336 334 332 332 330 330 328 329 331 333 336 338 338 335 337 337 336 335 335 337
325 324 324 324 323 323 324 324 322 323 324 326 327 328 328 328 327 328 330 330 332 335 335 337 341 345 347 345 344 344 345 342 343 345 344 344 342 343 340 337 337 335 336 333 332 330 330 330 329 328 330 333 332 334 336 335 336 336 334 336 336 335
325 326 325 323 324 324 324 325 324 323 325 326 325 327 328 327 327 327 329 331 331 331 331 336 338 339 342 341 343 341 343 348 346 342 342 343 342 341 340 337 337 337 334 332 331 330 330 330 329 327 328 332 335 335 335 334 335 333 334 334 333 335
325 324 325 325 325 324 325 323 324 325 324 325 324 324 325 327 327 328 328 327 331 333 333 332 333 334 338 338 341 340 343 346 348 344 342 342 341 339 340 336 338 338 337 335 330 329 331 330 327 328 326 331 333 335 334 334 334 335 332 334 333 333
325 324 324 324 325 324 323 325 324 322 325 326 326 325 324 324 326 327 328 327 327 328 329 330 329 331 333 331 334 337 337 338 337 343 344 341 338 337 338 339 338 338 337 337 333 330 329 329 326 324 327 330 332 334 334 334 334 333 332 331 332 332
325 324 324 325 325 325 324 324 324 325 325 325 325 325 326 325 325 326 327 327 327 328 328 329 330 329 328 329 330 328 328 331 333 335 338 341 338 337 337 337 336 337 338 337 336 332 331 329 324 323 325 329 330 332 334 334 334 333 332 331 330 330
325 323 322 324 322 318 316 315 315 318 319 322 324 323 326 325 325 325 326 326 326 327 326 327 328 329 327 326 326 327 327 329 330 329 330 333 331 336 336 336 335 334 334 335 334 333 331 328 326 326 327 329 329 330 331 333 334 332 332 331 330 331
326 323 321 320 318 316 314 313 315 317 316 318 320 323 324 326 325 325 326 325 326 325 326 327 326 327 329 327 326 327 326 326 329 328 329 332 333 335 338 336 336 334 332 331 331 332 330 330 325 325 328 328 329 330 330 332 332 331 329 329 330 330
324 322 322 321 321 322 318 315 315 315 315 315 316 319 320 324 324 325 326 326 326 326 325 326 326 327 327 327 327 327 328 329 330 331 331 332 335 335 335 338 337 335 334 332 329 330 329 328 322 322 322 322 325 327 329 330 328 328 328 328 331 333
323 321 321 321 321 319 321 321 319 317 316 315 320 322 322 323 324 323 324 324 324 325 324 325 326 326 326 327 327 327 328 329 330 332 333 335 336 334 336 336 337 335 331 331 330 331 331 329 323 324 326 322 320 319 323 325 328 327 328 328 331 331
323 321 321 321 318 322 321 322 323 321 321 319 317 321 324 325 323 323 322 323 323 323 323 324 325 324 326 326 327 327 328 328 329 331 333 332 332 332 333 334 335 333 333 327 329 327 330 329 326 323 318 319 321 320 317 321 323 326 329 329 331 331
322 321 319 319 321 322 322 323 322 324 323 320 320 319 320 320 320 320 320 321 321 322 322 322 323 325 325 326 327 327 328 329 330 331 331 331 329 331 334 335 333 332 332 330 327 330 327 328 326 328 323 320 318 317 317 320 325 324 327 326 328 330
322 319 318 320 320 321 319 318 316 313 313 313 313 314 314 315 316 317 317 319 320 320 320 321 322 323 323 325 326 326 328 329 331 330 331 332 333 336 336 335 335 334 333 332 329 327 325 328 328 327 325 326 325 320 320 322 323 319 328 329 328 327
321 319 318 318 319 319 319 318 318 316 316 315 313 315 316 317 316 317 317 318 318 319 319 320 321 322 323 323 324 325 326 326 327 330 331 332 332 333 334 334 335 334 334 332 331 326 327 329 331 326 324 326 327 328 329 325 321 323 319 325 327 327
320 318 319 319 320 317 318 317 316 317 315 315 314 314 315 316 316 316 315 317 317 318 319 320 320 320 321 322 323 323 324 325 324 326 328 330 331 333 334 335 335 334 334 334 331 326 328 333 328 325 324 324 327 329 330 328 328 324 321 320 321 326
320 318 319 319 319 319 316 316 315 315 315 314 314 313 314 314 314 315 315 315 317 317 318 319 319 319 320 321 321 322 323 323 323 325 324 326 330 331 333 333 335 330 330 331 330 328 328 329 330 327 326 324 325 326 327 327 327 326 322 321 319 321
319 318 318 318 318 319 318 316 315 315 314 314 314 314 314 314 314 314 313 314 315 315 316 317 318 319 319 319 320 322 321 322 323 324 324 325 327 329 330 333 333 334 333 332 332 330 328 328 330 332 332 327 324 324 326 325 325 325 324 324 318 318
320 318 318 318 318 318 318 317 315 315 314 313 313 313 313 312 313 313 312 312 313 314 315 315 316 317 317 318 319 320 321 321 322 322 322 323 325 326 329 331 332 333 333 332 331 330 327 330 330 328 329 329 328 326 324 324 325 324 324 322 320 320
319 319 317 317 317 317 317 316 315 315 314 313 312 312 312 311 312 311 311 310 312 313 313 314 316 316 317 317 317 318 320 321 320 322 321 323 326 327 328 330 331 333 332 333 332 329 328 327 328 329 330 329 328 330 328 325 327 328 325 323 323 321
319 318 316 317 316 317 316 316 314 314 314 313 313 313 312 312 312 311 311 311 310 310 312 312 314 313 315 316 316 316 317 317 318 320 322 322 323 325 326 327 329 331 331 331 331 331 328 327 329 329 328 330 329 330 331 331 328 329 329 327 325 321
319 319 317 315 316 316 316 315 315 313 313 312 312 312 312 311 312 312 311 311 310 310 309 310 311 312 313 314 315 315 316 316 317 319 320 320 322 324 325 325 326 327 330 330 331 330 330 329 329 329 329 329 329 330 330 329 329 329 327 326 324 322
318 318 315 315 316 315 315 315 314 314 313 313 312 312 312 311 311 311 312 311 310 310 309 310 310 311 311 312 312 313 314 314 315 317 317 319 320 322 324 323 324 326 327 329 330 330 331 331 328 327 329 329 328 330 331 331 331 329 330 328 326 325
318 318 315 315 315 314 314 314 314 313 313 312 310 311 310 310 311 312 311 311 311 311 311 311 311 311 311 310 310 311 311 312 314 315 316 317 319 320 321 322 323 323 324 327 328 331 329 327 328 330 330 331 329 328 328 330 331 331 330 330 330 327
318 318 315 314 314 314 313 313 313 312 312 312 311 310 310 311 311 311 311 311 311 311 312 311 311 311 310 310 310 310 310 311 313 314 314 316 317 318 320 321 321 323 323 325 326 327 332 332 332 333 331 331 329 329 328 328 330 331 332 330 329 330
Wind_Speed
9 8 7 5 5 7 9 10 9 8 6 7 8 11 10 10 9 10 11 10 10 10 9 10 12 11 14 11 9 6 9 10 11 12 12 13 13 12 12 12 9 6 6 6 5 6 7 8 9 10 10 9 10 8 3 1 3 2 1 4 3 6
7 8 7 5 4 5 8 9 9 9 9 7 9 12 12 11 12 11 10 9 8 6 9 9 9 9 10 11 12 10 10 10 11 13 12 12 12 12 12 11 11 8 6 6 6 5 6 7 8 10 10 10 8 6 3 2 2 3 2 3 2 9
8 6 7 7 4 5 7 6 7 9 7 8 7 11 10 12 10 11 11 10 10 9 8 7 8 9 8 10 10 12 13 12 11 13 13 11 11 11 10 9 10 10 7 6 6 4 5 7 7 8 9 8 6 5 4 2 3 2 3 3 2 11
7 6 5 5 5 3 4 4 5 6 6 6 5 6 8 9 9 9 9 9 7 7 8 6 8 11 12 8 7 11 14 15 12 13 13 10 11 10 11 10 10 10 9 7 5 4 4 5 6 8 7 6 6 3 4 4 3 3 2 4 4 10
6 5 4 4 5 4 3 3 4 4 5 4 3 4 5 8 8 8 8 7 8 7 7 6 8 7 6 9 10 8 11 10 10 10 15 10 10 10 10 9 8 9 7 6 5 4 3 4 5 6 7 6 5 4 5 4 3 2 2 3 8 9
4 5 3 3 4 5 3 3 1 2 2 4 3 3 4 4 6 7 6 8 7 6 6 6 6 6 5 7 9 8 8 10 10 12 12 9 9 10 10 9 8 8 6 6 4 4 4 3 4 6 6 6 5 5 5 4 3 2 2 3 9 8
4 3 4 3 2 3 4 5 6 5 2 2 2 2 4 4 4 5 6 7 6 7 7 6 6 4 6 6 8 9 10 11 12 10 10 9 9 9 9 8 8 7 6 6 6 5 5 5 5 5 6 6 6 6 5 4 4 3 3 3 9 10
4 3 3 4 3 4 5 6 6 5 6 7 5 3 3 3 3 4 5 5 7 7 7 7 7 7 7 7 8 11 11 10 9 9 9 9 9 9 8 6 7 7 7 6 6 6 6 6 6 6 6 6 6 6 5 5 4 3 3 3 6 8
4 3 3 3 3 4 5 6 6 5 5 5 4 5 4 4 4 4 5 7 7 7 7 9 8 8 4 8 9 9 9 9 10 9 9 9 8 8 7 6 6 7 6 6 5 6 6 6 6 6 6 7 7 7 6 5 4 4 5 4 4 9
5 4 3 2 3 4 4 4 4 4 4 3 4 4 7 6 5 5 4 6 7 7 5 5 8 9 9 6 9 10 10 9 10 9 7 10 8 8 7 7 7 7 6 6 6 5 5 6 7 7 7 7 7 7 6 6 6 5 4 3 3 9
6 5 5 5 4 4 4 4 4 3 3 3 2 2 2 3 4 5 4 5 7 7 7 6 7 9 8 10 9 10 10 9 9 8 9 9 7 7 7 7 7 6 6 6 6 5 5 7 7 8 8 8 7 7 7 6 6 5 5 4 4 5
5 5 5 6 5 5 5 5 4 3 3 4 1 1 1 1 1 4 5 6 6 7 7 7 7 5 9 9 8 9 9 10 9 9 9 8 7 7 7 7 7 6 5 5 5 6 5 7 7 7 7 9 7 6 7 7 7 6 6 5 5 4
5 5 5 6 5 4 5 5 5 4 4 3 1 2 2 2 0 1 2 4 5 6 6 7 5 6 9 8 6 3 7 10 10 8 8 8 8 7 7 6 5 5 6 6 5 4 6 7 8 7 7 8 8 9 9 8 7 6 6 6 5 5
3 5 5 5 5 5 5 4 4 4 4 4 3 2 1 2 3 1 1 2 4 4 5 6 6 6 7 7 7 6 8 9 9 9 8 7 7 7 7 7 6 6 6 6 6 7 7 7 7 7 7 8 8 8 8 8 8 7 6 6 5 5
2 3 4 5 5 5 4 4 4 4 4 5 3 2 2 2 2 2 2 1 2 3 4 5 6 5 4 5 3 4 6 9 9 8 7 7 7 7 7 7 6 7 7 7 7 7 7 7 7 8 8 8 9 9 8 8 8 7 7 7 6 6
2 2 3 3 3 4 4 3 3 3 3 4 3 3 2 2 3 2 2 2 2 1 2 3 5 6 6 7 5 5 8 8 7 8 8 8 8 8 8 8 8 8 7 8 8 8 7 6 7 8 8 8 8 8 8 9 9 8 8 7 7 6
2 2 2 2 2 2 2 4 4 3 2 2 3 2 2 2 2 2 3 2 2 2 3 3 4 5 6 5 6 7 5 7 6 7 9 7 8 7 8 9 8 8 8 8 8 8 7 7 7 8 8 8 8 8 9 9 9 8 9 8 8 7
2 2 2 3 2 2 2 2 2 4 3 3 2 2 3 2 1 2 2 3 3 2 3 4 3 3 3 5 5 5 4 5 5 8 7 7 7 9 9 8 9 9 8 7 8 7 7 7 6 7 8 9 9 8 9 9 9 8 9 9 8 8
2 1 1 2 3 2 1 1 2 2 3 3 4 2 3 2 2 2 1 3 3 3 2 2 3 2 2 2 3 2 2 4 3 5 5 6 6 9 9 9 11 8 8 8 7 7 7 5 7 7 8 9 9 10 9 9 9 9 9 9 9 9
3 2 1 1 1 3 5 5 6 6 5 5 4 5 3 3 3 2 3 3 2 3 3 2 3 3 2 2 3 3 3 2 1 3 6 6 7 8 12 13 11 11 11 8 7 8 8 6 7 7 7 8 9 10 11 10 10 10 9 10 9 7
4 3 0 1 2 3 5 6 5 6 6 6 5 4 3 3 3 3 4 4 3 2 3 3 3 3 4 4 4 3 4 5 4 4 7 7 10 14 13 12 10 10 11 10 7 10 10 8 8 7 7 7 8 9 9 11 12 11 11 10 8 8
4 3 2 1 1 1 3 4 4 5 6 5 6 5 5 4 3 3 3 4 3 3 3 3 2 3 3 5 5 5 5 5 5 6 7 8 10 12 13 13 11 11 11 11 10 13 10 9 10 9 9 8 8 8 9 11 13 13 13 11 10 9
4 2 2 1 1 2 1 1 2 4 4 5 3 4 5 4 3 3 2 3 3 3 4 3 3 3 4 4 5 5 6 5 6 6 6 7 9 13 10 9 10 10 11 9 8 11 11 11 9 9 8 7 8 9 9 10 12 13 12 11 10 10
5 3 2 2 1 1 1 1 1 1 2 3 4 3 3 2 1 4 5 4 5 5 6 5 4 4 5 5 5 6 6 6 7 8 8 7 6 8 9 12 11 9 7 7 6 11 14 14 11 9 10 10 8 9 9 11 11 12 13 13 12 12
4 4 2 2 1 1 1 2 1 2 2 0 1 3 3 4 5 5 5 5 6 6 6 5 6 6 5 6 5 5 6 6 7 8 8 9 10 10 9 8 11 11 11 10 10 6 11 14 15 12 9 8 8 9 9 7 10 9 11 12 14 13
4 3 2 2 1 1 1 2 3 4 4 4 4 4 5 6 6 6 6 6 7 6 6 6 6 6 6 6 7 6 6 6 7 7 8 9 9 9 10 12 13 12 13 12 9 10 10 10 13 15 15 10 8 6 6 7 7 8 9 11 11 14
5 4 3 1 0 1 1 2 3 3 3 3 3 3 3 4 4 5 6 7 6 6 6 6 6 6 6 6 7 7 7 7 7 7 7 9 9 10 8 8 9 12 11 9 10 7 8 6 9 13 14 13 12 8 6 7 8 6 8 9 10 12
6 5 4 2 2 0 1 2 2 2 2 2 3 2 2 3 3 4 6 7 6 6 6 6 6 6 7 7 7 7 8 8 8 8 7 7 9 9 9 8 8 9 8 9 10 11 10 7 7 7 10 12 13 12 11 8 8 8 6 8 9 10
7 6 5 4 3 2 1 1 1 1 2 2 1 1 1 1 3 4 6 6 7 7 6 5 6 6 7 7 7 7 7 8 9 8 7 8 8 9 12 12 10 11 10 9 9 11 10 9 6 7 8 11 12 12 12 12 10 9 8 9 9 9
9 7 6 6 4 4 2 1 1 1 1 1 2 1 1 2 2 3 4 6 6 6 6 6 6 6 7 7 8 7 7 8 8 9 8 9 9 10 10 10 12 12 13 14 10 8 11 10 10 8 7 6 8 11 12 13 12 11 12 13 12 8
10 7 7 7 6 5 4 2 2 2 2 1 1 1 1 1 2 3 4 5 6 6 6 6 6 6 6 7 7 8 7 7 7 8 9 10 10 10 9 10 11 12 13 14 11 11 10 11 9 7 8 7 7 9 13 14 12 13 12 12 11 10
11 10 8 7 7 6 5 4 3 3 2 1 0 1 2 2 2 3 3 4 4 5 5 6 6 6 6 6 6 7 8 8 8 8 9 9 9 9 9 10 10 10 11 14 13 12 11 13 13 10 11 9 9 8 11 14 12 11 12 12 10 11
12 11 9 8 7 7 5 4 3 3 2 2 1 2 2 2 2 3 3 3 4 5 5 5 5 6 6 8 7 7 7 7 7 8 8 9 10 11 11 10 10 12 13 12 13 14 14 15 14 13 11 10 9 9 10 12 14 12 11 11 11 11
12 11 9 8 8 7 6 5 4 3 2 2 2 2 2 2 3 3 3 4 4 4 5 5 6 7 7 8 8 8 8 9 9 10 10 10 11 12 12 11 11 12 13 13 12 15 15 16 15 17 14 11 11 11 12 12 13 11 14 12 13 12
12 12 10 9 8 7 6 6 5 4 3 2 2 3 3 2 3 3 3 4 5 5 5 5 5 6 7 8 9 9 10 10 10 10 11 11 11 11 12 12 11 12 11 11 12 13 15 18 16 18 15 13 12 11 12 12 11 13 13 13 13 12
13 12 11 10 8 7 6 5 5 5 4 3 3 3 3 3 3 4 4 5 5 6 6 6 6 6 8 8 9 10 10 10 11 10 11 11 11 11 12 12 12 12 13 10 11 14 14 16 18 18 18 15 12 13 12 12 11 12 14 13 11 12
12 11 11 10 8 7 6 6 6 5 4 4 4 4 4 4 5 5 5 5 5 6 6 7 7 6 8 8 9 10 10 10 10 10 11 12 12 12 12 12 12 14 14 13 12 13 12 14 14 15 17 19 16 13 12 12 12 10 10 12 12 13
Wind_Direction
71 80 74 80 117 153 135 144 151 160 181 186 180 155 163 165 168 167 170 165 158 167 178 168 159 170 138 160 150 160 149 155 150 146 149 151 153 153 149 138 122 120 113 103 106 119 138 152 150 146 146 157 164 202 210 124 174 145 161 122 199 94
55 68 73 72 100 147 153 178 167 166 181 181 183 165 173 179 183 178 171 178 164 182 187 170 160 170 161 169 157 156 159 161 161 150 149 149 139 138 138 131 127 124 117 119 134 177 158 149 151 152 157 159 190 214 153 181 208 163 128 126 184 101
59 50 74 77 82 127 151 152 161 168 169 184 174 192 182 186 197 187 178 193 170 194 192 165 157 157 183 160 152 155 160 157 176 154 151 146 140 134 130 126 125 129 125 133 186 182 176 155 163 159 163 182 213 215 163 187 209 155 177 106 117 109
54 49 51 78 99 110 134 146 151 161 171 164 174 206 204 186 196 210 187 190 196 183 180 179 160 168 150 167 158 176 164 159 173 153 140 149 134 125 129 130 131 134 149 184 197 177 185 157 168 178 188 200 210 180 189 193 212 177 181 146 124 125
55 57 50 68 83 88 133 164 157 146 162 167 187 197 221 205 198 210 206 199 201 193 186 182 167 165 190 158 174 182 176 172 177 158 162 173 174 154 165 171 155 172 191 188 192 175 218 173 174 181 189 200 212 182 207 192 221 178 171 159 113 137
52 56 53 64 73 89 102 103 89 138 157 161 207 210 220 216 203 215 217 209 207 197 201 203 173 183 191 160 163 181 172 175 179 180 188 182 183 176 189 176 182 186 188 195 180 199 202 223 200 199 188 197 204 199 212 199 188 225 169 167 123 136
50 58 40 52 82 96 86 65 45 23 30 38 330 251 225 221 221 221 214 219 211 208 206 206 180 172 198 176 167 172 193 184 181 187 187 192 186 183 195 183 182 187 188 191 193 195 209 213 237 212 208 203 203 199 210 204 191 205 188 209 131 151
49 26 37 22 48 69 70 71 55 45 30 14 355 282 247 251 261 238 232 223 222 218 208 207 195 190 192 189 182 171 186 185 182 188 190 198 190 193 195 195 186 185 191 198 202 211 214 214 216 237 229 216 205 208 208 212 194 206 198 209 150 148
32 33 43 359 26 48 67 77 83 59 43 24 27 352 334 292 261 255 227 236 223 228 220 210 206 182 196 198 186 182 184 190 188 196 192 203 201 194 199 198 190 194 196 202 209 209 222 225 217 225 230 223 214 209 208 218 206 207 212 197 221 150
42 20 33 20 16 29 43 55 72 86 82 53 18 6 0 343 299 252 240 235 233 231 240 261 214 187 183 217 192 187 190 191 195 198 192 209 201 197 198 196 196 204 201 206 213 204 215 224 225 217 227 225 212 213 206 213 210 216 204 221 230 134
58 27 15 42 24 30 26 39 31 47 101 91 60 70 48 296 319 331 303 250 242 240 241 211 236 216 173 202 199 191 192 197 197 195 201 206 200 200 199 198 203 204 217 217 216 214 204 228 230 220 217 222 219 214 211 213 218 214 212 203 217 171
50 40 27 27 37 30 19 20 29 15 32 38 35 44 199 188 338 311 327 333 275 257 240 245 235 261 220 203 200 201 200 202 203 196 204 205 198 205 205 205 206 208 220 224 219 225 212 234 225 228 213 217 205 212 216 214 218 212 222 212 210 210
47 46 37 34 24 30 20 11 13 15 22 11 11 24 324 325 357 202 310 311 326 280 261 247 228 207 248 211 200 226 218 208 207 200 199 207 205 207 214 204 200 205 208 206 222 218 229 231 233 227 222 217 206 210 210 209 213 219 216 222 220 216
37 47 31 37 20 17 20 8 2 10 17 354 12 354 10 338 308 296 245 281 302 297 284 284 260 226 222 234 195 198 228 222 210 198 199 198 203 207 214 208 205 200 193 200 207 216 221 229 227 225 223 223 211 212 211 210 210 210 215 224 223 222
93 47 37 30 20 14 19 4 2 12 2 359 346 350 17 341 318 303 297 264 255 293 346 319 298 267 246 249 257 207 231 230 211 200 198 199 206 204 208 214 209 208 198 217 226 214 223 227 220 217 210 218 216 207 212 218 214 215 210 221 227 223
100 78 50 36 21 10 3 1 359 20 2 360 350 350 12 18 334 316 297 285 270 310 318 304 327 315 260 239 230 231 219 226 224 215 205 202 208 203 204 214 218 221 221 217 218 221 214 216 217 213 211 210 218 214 210 215 216 218 217 217 218 216
84 54 41 27 18 13 359 350 351 7 8 357 2 2 357 353 328 331 343 310 346 297 265 291 319 344 333 285 255 244 248 235 223 225 214 207 208 216 211 212 214 219 224 235 225 223 208 212 213 206 210 207 212 216 217 217 213 216 223 218 227 217
95 34 360 350 355 343 16 350 356 357 9 0 12 1 2 336 336 355 336 357 347 315 282 273 264 296 320 348 338 352 325 331 294 241 231 220 215 224 225 229 220 214 218 228 242 230 223 211 210 203 202 203 210 214 220 219 218 218 225 219 219 229
129 62 339 336 329 314 331 350 20 335 8 2 1 33 0 349 12 341 35 3 333 318 279 258 255 241 254 312 340 344 342 303 332 319 256 229 239 224 219 222 230 213 214 230 249 250 235 214 210 208 200 201 206 213 223 224 225 223 225 225 223 222
136 118 263 263 314 0 12 16 12 6 12 16 353 8 12 18 4 4 11 339 336 305 297 274 262 246 210 206 233 254 269 268 340 309 298 261 228 234 214 216 222 218 211 219 238 242 229 218 218 208 208 203 207 214 216 221 225 227 226 227 231 227
135 123 2 10 43 13 20 16 10 7 359 3 359 355 6 27 8 14 355 348 339 331 327 300 272 258 242 228 219 221 230 242 212 215 242 248 236 228 218 213 210 220 218 212 224 239 224 212 214 203 196 214 208 219 222 219 225 229 229 233 231 225
142 118 114 49 23 95 32 23 356 10 351 356 354 356 354 359 5 352 358 353 348 331 328 302 274 263 257 247 242 228 219 221 206 211 226 242 246 238 225 209 206 206 214 207 211 222 220 208 214 205 189 196 214 210 227 226 228 230 233 231 230 227
128 125 112 88 331 67 74 62 5 8 354 355 1 1 339 340 333 337 348 349 338 344 326 301 285 269 258 250 248 246 242 232 226 223 226 227 240 230 220 212 200 208 210 216 215 230 228 209 224 208 199 198 201 212 209 224 229 234 229 228 222 224
132 124 114 83 4 72 104 129 162 11 8 358 352 341 320 292 340 343 338 346 332 332 320 303 292 281 263 257 255 256 249 238 226 223 229 229 255 254 230 202 195 199 199 189 213 232 220 213 235 207 208 208 201 206 217 212 216 217 223 220 220 226
138 124 108 78 11 311 163 171 143 176 191 316 356 358 355 358 352 342 325 334 335 324 315 310 310 299 283 271 261 263 260 248 240 228 221 220 221 224 217 202 203 198 196 204 196 236 229 214 221 242 237 209 213 207 231 223 188 215 208 216 215 220
148 143 129 120 42 309 35 29 19 15 9 9 6 12 3 356 340 335 333 330 319 325 319 310 303 300 299 291 281 266 262 267 248 239 234 230 231 228 222 209 202 204 196 200 195 191 231 212 222 226 241 249 248 252 223 218 213 221 192 223 228 221
164 155 136 132 35 272 62 55 45 31 30 10 8 24 5 338 328 330 323 323 320 317 315 308 301 297 294 293 289 282 274 262 265 268 252 239 236 239 236 224 211 201 204 197 198 208 235 214 224 227 230 239 251 258 266 244 218 226 219 199 222 224
167 163 153 163 163 255 2 71 33 54 34 30 17 3 348 335 333 316 320 317 314 310 310 309 307 304 300 289 285 288 284 276 268 262 261 255 243 239 240 227 213 214 209 199 190 198 212 218 198 221 243 237 238 253 254 260 252 241 240 236 208 230
169 170 167 169 184 160 132 54 24 45 40 30 18 10 348 335 332 334 313 315 311 309 302 299 299 300 302 298 290 280 283 279 271 263 264 260 260 257 246 239 219 209 212 212 202 198 207 211 205 212 223 234 238 241 244 246 252 250 251 245 239 220
178 181 169 175 180 168 165 182 137 75 70 23 358 346 342 360 318 327 313 311 312 308 307 305 300 301 301 306 304 295 283 278 273 271 270 268 267 257 260 255 238 226 213 212 211 204 207 210 212 210 216 232 224 234 243 243 237 241 251 254 257 232
186 183 174 177 180 173 176 184 150 122 98 72 1 320 314 325 330 315 316 313 308 309 308 302 300 296 295 296 298 296 287 277 277 273 267 267 260 259 258 253 249 237 229 221 207 204 207 215 216 215 216 221 226 230 238 235 237 234 237 241 230 255
190 185 175 176 176 177 179 171 155 142 124 111 277 271 310 309 301 299 289 291 297 301 300 299 296 293 292 294 295 293 297 293 277 269 266 260 262 264 262 261 252 242 231 225 216 206 205 210 209 208 216 215 219 224 242 246 242 240 235 241 245 235
193 184 179 172 177 174 177 172 157 146 146 142 203 263 262 265 271 268 274 287 293 289 293 294 301 295 292 290 288 285 284 288 287 279 273 269 262 261 265 267 263 250 237 226 220 209 210 211 203 204 208 213 216 221 234 247 247 243 234 237 235 238
196 184 175 172 175 172 171 162 153 150 147 169 207 226 256 254 262 265 274 274 281 284 286 283 286 286 285 285 281 279 280 279 282 283 281 274 269 267 263 261 257 256 249 239 230 222 216 209 207 206 206 205 211 213 223 232 239 238 239 232 230 231
196 180 173 173 172 171 163 161 156 146 161 177 198 223 233 255 258 269 270 273 272 271 267 271 273 278 282 280 280 278 278 277 275 278 279 275 269 265 261 257 257 256 258 247 236 231 227 220 212 209 208 209 211 217 221 223 233 238 239 233 231 227
195 179 174 171 169 165 161 157 152 158 168 190 215 225 236 227 247 260 267 268 270 268 267 269 269 269 269 268 270 274 274 272 273 271 269 268 269 266 260 257 253 252 251 249 245 232 228 227 222 213 210 207 210 215 217 219 226 233 234 237 236 232
198 179 170 169 163 162 155 159 163 168 178 192 212 227 234 237 250 256 262 264 267 272 274 268 269 270 270 267 264 266 269 272 274 274 271 271 268 264 266 259 253 250 248 248 245 244 236 234 228 218 215 211 215 213 216 217 223 230 233 237 242 239